Powrót do katalogu

STARLINK-37372

AktywnyŁącznośćSSO
NORAD 69135·PAYLOAD·🇺🇸 United States

Wystrzelony May 20, 2026 z Vandenberg Space Force Base

Loading…

Następne Przeloty (najbliższe 24 godziny)

TLE

ŚwieżeSource: CelesTrak SupGP

Epoka: Sep 14, 2026, 22:47 UTC

1 69135C 26110M   26257.94979167  .00085667  00000+0  26600-2 0  2572
2 69135  97.2850  93.0850 0001763  92.5053 334.2989 15.33387406    12

Śledź STARLINK-37372 w czasie rzeczywistym z AllMySat

Download on the App Store